DateTimeUTC,F1_A11,F1_S11,BsB_S11,BsG_S11,BsR_S11,BbsB_S11,BbsG_S11,BbsR_S11,BaB_A11,BaG_A11,BaR_A11,Tu_S11,T_S11,Uu_S11,U_S11,P_S11,T1_A11
2021-06-28T09:00:00Z,00000200,20000000,,,,,,,-000.06,-000.12,0000.18,18.7,25.5,07.2,04.8,0670.2,31.1
2021-06-28T09:01:00Z,00000200,20000000,,,,,,,0000.45,0000.83,0000.23,18.7,25.5,07.3,04.8,0670.2,31.1
2021-06-28T09:02:00Z,00000200,20000000,,,,,,,-000.12,-000.54,-000.06,18.7,25.5,07.3,04.8,0670.2,31.1
2021-06-28T09:03:00Z,00000200,60000000,,,,,,,0000.26,0000.29,0000.05,18.7,25.5,07.3,04.8,0670.2,31.1
2021-06-28T09:04:00Z,00000200,40000000,0001.00,0000.41,0000.12,0000.51,0000.05,0000.17,-000.04,-000.13,-000.04,18.9,25.4,07.6,05.1,0671.1,31.2
2021-06-28T09:05:00Z,00000200,00000000,0001.35,0000.79,0000.57,0000.40,-000.07,-000.05,0000.17,0000.51,0000.26,19.0,25.3,07.6,05.2,0671.2,31.1
2021-06-28T09:06:00Z,00000200,00010000,0000.82,0000.85,0000.17,0000.17,-000.00,0000.34,-000.09,-000.07,0000.25,19.0,25.3,07.6,05.2,0671.2,31.2
2021-06-28T09:07:00Z,00000200,00000000,0000.14,0000.72,0000.48,0000.33,0000.08,-000.02,0000.38,0000.09,-000.06,19.0,25.3,07.8,05.3,0671.2,31.2
2021-06-28T09:08:00Z,00000200,00000000,0000.85,0000.68,0000.13,-000.03,0000.01,0000.22,0000.21,0000.02,-000.07,19.0,25.3,07.9,05.3,0671.1,31.2
2021-06-28T09:09:00Z,00000200,00000000,0000.61,0000.73,0000.29,-000.28,-000.19,0000.13,0000.10,0000.36,0000.15,19.0,25.3,07.9,05.4,0671.2,31.1
2021-06-28T09:10:00Z,00000200,00000000,0000.48,0000.63,0000.66,0000.30,-000.18,0000.23,0000.14,0000.14,0000.17,19.0,25.3,08.0,05.4,0671.1,31.1
2021-06-28T09:11:00Z,00000200,00000000,0000.57,0001.02,0000.28,0000.00,0000.04,0000.05,0000.27,-000.22,0000.02,19.0,25.3,08.0,05.4,0671.1,31.2
2021-06-28T09:12:00Z,00000200,00000000,0001.18,0000.67,0000.44,-000.08,-000.03,-000.08,-000.00,0000.40,0000.36,19.0,25.3,07.9,05.4,0671.1,31.1
2021-06-28T09:13:00Z,00000200,00000000,0000.51,0000.63,0000.51,0000.13,0000.19,0000.39,0000.31,0000.13,-000.03,18.9,25.2,08.1,05.5,0671.1,31.1
2021-06-28T09:14:00Z,00000200,00000000,0000.94,0000.58,0000.39,0000.73,0000.17,0000.21,-000.00,-000.10,-000.00,18.9,25.2,08.1,05.5,0671.1,31.1
2021-06-28T09:15:00Z,00000200,00000000,0001.09,0000.74,0000.42,0000.39,0000.08,0000.00,0000.10,0000.45,0000.04,18.9,25.2,08.1,05.5,0671.1,31.1
2021-06-28T09:16:00Z,00000200,00000000,0000.69,0000.76,0000.23,0000.13,0000.04,0000.12,0000.52,0000.15,0000.73,18.9,25.2,08.2,05.6,0671.1,31.1
2021-06-28T09:17:00Z,00000200,00000000,0000.46,0000.66,0000.37,0000.14,0000.06,0000.13,-000.02,0000.18,-000.33,18.9,25.2,08.3,05.6,0671.1,31.1
2021-06-28T09:18:00Z,00000200,00000000,0001.07,0000.38,0000.25,0000.15,0000.05,0000.08,-000.15,-000.07,-000.10,18.9,25.2,08.4,05.7,0671.1,31.1
2021-06-28T09:19:00Z,00000200,00000000,0000.01,0000.61,0000.43,0000.31,-000.11,-000.09,0000.49,0000.49,0000.81,18.9,25.2,08.4,05.7,0671.1,31.1
2021-06-28T09:20:00Z,00000200,00000000,0000.15,0000.54,0000.09,-000.15,0000.02,0000.03,0000.15,-000.40,-000.39,18.9,25.2,08.5,05.8,0671.1,31.2
2021-06-28T09:21:00Z,00000200,00000000,0000.80,0000.83,0000.22,0000.53,0000.28,0000.12,0000.15,0000.11,0000.35,18.9,25.2,08.3,05.7,0671.1,31.1
2021-06-28T09:22:00Z,00000200,00000000,0000.32,0000.32,0000.26,0000.04,-000.11,0000.17,0000.06,0000.26,-000.12,18.9,25.2,08.4,05.7,0671.1,31.1
2021-06-28T09:23:00Z,00000200,00000000,0001.16,0000.88,0000.29,0000.69,0000.19,0000.25,-000.18,0000.11,-000.12,18.9,25.2,08.4,05.8,0671.0,31.1
2021-06-28T09:24:00Z,00000200,00000000,0001.16,0000.64,0000.36,0000.26,0000.10,0000.32,0000.16,0000.03,0000.41,18.9,25.2,08.5,05.8,0671.0,31.1
2021-06-28T09:25:00Z,00000200,00000000,0001.01,0000.44,0000.59,0000.20,0000.38,0000.07,0000.52,0000.32,-000.18,18.9,25.2,08.6,05.8,0671.0,31.1
2021-06-28T09:26:00Z,00000200,00000000,0001.02,0000.79,0000.51,0000.11,-000.12,0000.16,-000.44,-000.10,-000.15,18.9,25.2,08.6,05.8,0670.9,31.2
2021-06-28T09:27:00Z,00000200,00000000,0000.57,0000.71,0000.14,0000.23,0000.09,0000.10,0000.31,-000.10,0000.19,18.8,25.2,08.7,05.9,0671.0,31.1
2021-06-28T09:28:00Z,00000200,00000000,0000.69,0000.30,0000.13,-000.22,0000.18,0000.25,0000.12,0000.38,-000.06,18.8,25.2,08.5,05.8,0671.1,31.1
2021-06-28T09:29:00Z,00000200,00000000,-000.13,0000.63,0000.33,-000.06,-000.05,0000.34,0000.25,0000.17,0000.46,18.8,25.1,08.6,05.9,0671.0,31.1
2021-06-28T09:30:00Z,00000200,00000000,0000.57,0000.54,0000.31,-000.05,-000.10,0000.09,-000.18,-000.22,0000.05,18.8,25.1,08.6,05.8,0670.9,31.1
2021-06-28T09:31:00Z,00000200,00000000,0000.51,0000.71,0000.06,-000.47,0000.01,-000.20,0000.37,0000.32,-000.05,18.8,25.1,08.5,05.8,0670.9,31.1
2021-06-28T09:32:00Z,00000200,00000000,0000.80,0000.55,0000.63,0000.09,-000.11,0000.03,0000.09,0000.08,0000.14,18.8,25.1,08.5,05.8,0670.9,31.1
2021-06-28T09:33:00Z,00000200,00000000,0000.99,0000.54,0000.42,0000.45,0000.04,0000.03,0000.14,0000.49,0000.55,18.9,25.1,08.4,05.7,0670.9,31.1
2021-06-28T09:34:00Z,00000200,00000000,0000.30,0000.73,0000.31,0000.28,0000.02,0000.06,-000.24,-000.15,-000.14,18.9,25.2,08.4,05.7,0671.0,31.2
2021-06-28T09:35:00Z,00000200,00000000,-000.09,0000.55,0000.32,0000.02,0000.10,-000.14,0000.59,-000.00,-000.19,19.0,25.2,08.4,05.7,0671.0,31.2
2021-06-28T09:36:00Z,00000200,00000000,-000.08,0000.51,0000.27,0000.03,-000.07,0000.19,0000.06,0000.02,-000.07,19.0,25.2,08.3,05.7,0670.9,31.1
2021-06-28T09:37:00Z,00000200,00000000,0001.05,0000.69,0000.28,-000.18,0000.32,0000.02,-000.13,-000.04,0000.21,19.1,25.3,08.2,05.6,0671.0,31.2
2021-06-28T09:38:00Z,00000200,00000000,0001.20,0000.87,0000.32,0000.32,-000.11,0000.08,-000.03,0000.08,0000.04,19.0,25.2,08.3,05.7,0670.9,31.2
2021-06-28T09:39:00Z,00000200,00000000,0001.06,0000.51,0000.02,-000.01,-000.07,-000.14,-000.15,0000.20,-000.05,19.0,25.2,08.3,05.7,0671.0,31.2
2021-06-28T09:40:00Z,00000200,00000000,0000.62,0000.58,0000.20,0000.24,0000.13,-000.01,0000.21,0000.09,0000.28,19.0,25.2,08.3,05.7,0671.1,31.2
2021-06-28T09:41:00Z,00000200,00000000,0000.21,0000.52,0000.60,0000.28,-000.02,0000.07,0000.10,-000.40,-000.17,19.0,25.2,08.3,05.7,0671.0,31.2
2021-06-28T09:42:00Z,00000200,00000000,0000.55,0000.36,0000.03,0000.06,0000.15,-000.21,0000.39,0000.36,0000.33,18.9,25.2,08.3,05.6,0671.0,31.1
2021-06-28T09:43:00Z,00000200,00000000,0000.26,0000.45,0000.04,0000.61,-000.07,0000.03,0000.02,0000.17,-000.10,18.9,25.2,08.3,05.6,0671.1,31.1
2021-06-28T09:44:00Z,00000200,00000000,0000.53,0000.44,0000.31,-000.00,-000.13,-000.03,-000.13,0000.10,-000.01,18.9,25.2,08.4,05.7,0671.0,31.1
2021-06-28T09:45:00Z,00000200,00000000,0000.40,0000.40,0000.32,0000.03,-000.05,0000.14,0000.04,-000.04,0000.04,18.9,25.2,08.4,05.7,0671.0,31.1
2021-06-28T09:46:00Z,00000200,00000000,0000.48,0000.39,0000.16,0000.96,0000.17,-000.30,0000.37,0000.49,0000.41,18.9,25.1,08.4,05.8,0671.0,31.1
2021-06-28T09:47:00Z,00000200,00000000,0000.82,0000.74,0000.40,0000.24,0000.06,0000.15,0000.14,-000.22,-000.10,18.9,25.1,08.6,05.8,0671.0,31.1
2021-06-28T09:48:00Z,00000200,00000000,0000.62,0000.44,0000.24,0000.21,0000.30,0000.20,-000.04,0000.42,0000.00,18.9,25.2,08.3,05.7,0671.1,31.1
2021-06-28T09:49:00Z,00000200,00000000,0000.87,0000.61,0000.07,-000.03,-000.08,0000.18,0000.11,-000.17,-000.07,19.0,25.2,08.3,05.7,0671.0,31.2
2021-06-28T09:50:00Z,00000200,00000000,0001.04,0000.39,0000.07,0000.25,0000.14,-000.12,0000.20,-000.11,0000.24,19.0,25.2,08.4,05.8,0671.0,31.1
2021-06-28T09:51:00Z,00000200,00000000,0000.36,0000.59,0000.28,0000.56,-000.00,0000.03,-000.05,0000.26,-000.11,19.1,25.3,08.5,05.8,0671.0,31.2
2021-06-28T09:52:00Z,00000200,00000000,0001.03,0000.83,0000.40,0000.16,0000.28,-000.01,-000.08,-000.03,0000.18,19.1,25.2,08.4,05.8,0671.1,31.2
2021-06-28T09:53:00Z,00000200,00000000,0000.72,0000.50,0000.27,0000.56,0000.23,0000.13,0000.35,0000.08,-000.07,19.0,25.3,08.5,05.8,0671.0,31.2
2021-06-28T09:54:00Z,00000200,00000000,0000.10,0000.50,0000.03,0000.05,-000.23,0000.28,0000.08,0000.56,0000.26,19.0,25.2,08.6,05.9,0671.0,31.2
2021-06-28T09:55:00Z,00000200,00000000,0000.64,0000.44,0000.44,-000.24,-000.12,0000.07,0000.32,-000.35,-000.07,19.0,25.2,08.7,05.9,0671.0,31.2
2021-06-28T09:56:00Z,00000200,00000000,0000.60,0000.53,0000.08,0000.42,0000.08,-000.15,0000.23,0000.22,0000.11,19.0,25.2,08.7,05.9,0671.0,31.2
2021-06-28T09:57:00Z,00000200,40000000,,,,,,,-000.40,-000.38,0000.05,19.0,25.2,08.9,06.1,0671.0,31.2
2021-06-28T09:58:00Z,00000200,60000000,,,,,,,-000.23,0000.21,-000.10,18.7,25.3,08.3,05.5,0670.0,31.2
2021-06-28T09:59:00Z,00000200,20000000,,,,,,,-000.08,0000.06,0000.14,18.7,25.4,08.3,05.5,0670.0,31.2
